Погода в Коконау

Индонезия     4°31′59″S   136°33′00″E
темп.,
°C
ветер,
м/с
пор.,
м/с
влажн.,
%
обл.,
%
осадки,
мм/ч
давл.,
гПа
погр.,
м
20 января, ср
ср2000:00+23св2497100 4.0 1011103
03:00+22ссз2598100 7.3 1010161
06:00+22ссв0098100 3.4 101123
09:00+25сз0195100 4.6 101234
12:00+31всв246198 0.0 1010797
15:00+30вюв138399 2.4 1008425
18:00+26всв1294100 2.6 101044
21:00+24св1196100 3.4 101225
21 января, чт
чт2100:00+23ссв1296100 2.6 101127
03:00+23всв1296100 3.9 101029
06:00+23всв1196100 0.7 101127
09:00+28всв137490 1.0 1012274
12:00+35в224424 0.0 10091563
15:00+33ююв345318 0.0 10071154
18:00+26ю1184100 1.8 100824
21:00+24ссз1393100 4.1 1011100
22 января, пт
пт2200:00+23зсз1194100 0.8 101024
03:00+23всв0093100 0.8 100823
06:00+23всв1194100 0.0 100925
09:00+26ссв018199 0.0 1010173
12:00+35з12468 0.0 10081360
15:00+33ююз335432 0.0 10061174
18:00+27юз128270 1.3 100856
21:00+24с119479 2.2 101024
23 января, сб
сб2300:00+24с1293100 0.1 101077
03:00+23ссв1291100 0.1 100861
06:00+23всв009099 0.0 100923
09:00+27вюв017696 0.0 1010229
12:00+35ююз224799 0.0 10081452
15:00+31ююз335988 0.3 1006925
18:00+27юз128315 1.0 100856
21:00+25св018957 1.2 101024
24 января, вс
вс2400:00+24сз2599100 12.4 1011227
03:00+24с1198100 16.2 100826
06:00+23ссв1197100 0.1 101024
09:00+25в1192100 0.1 101095
12:00+29ююв1173100 0.0 1008350
15:00+31юз226776 0.8 10061006
18:00+26с119384 2.9 100834
21:00+24ссз119691 2.9 101024